CDT,Max TemperatureF,Mean TemperatureF,Min TemperatureF,Max Dew PointF,MeanDew PointF,Min DewpointF,Max Humidity, Mean Humidity, Min Humidity, Max Sea Level PressureIn, Mean Sea Level PressureIn, Min Sea Level PressureIn, Max VisibilityMiles, Mean VisibilityMiles, Min VisibilityMiles, Max Wind SpeedMPH, Mean Wind SpeedMPH, Max Gust SpeedMPH,PrecipitationIn, CloudCover, Events, WindDirDegrees
2012-7-1,99,86,72,66,59,50,68,44,20,30.00,29.94,29.88,10,10,10,30,8,35,0.10,2,Rain-Thunderstorm,206
2012-7-2,94,82,70,67,64,60,74,55,36,30.04,29.98,29.92,10,10,9,17,7,26,0.00,1,Rain-Thunderstorm,230
2012-7-3,96,84,71,67,61,53,79,54,28,30.03,29.94,29.87,10,10,10,22,9,26,0.00,0,,228
2012-7-4,100,84,68,63,56,50,66,43,20,29.99,29.93,29.87,10,10,10,18,7,30,0.00,0,,215
2012-7-5,101,87,72,63,58,50,64,42,20,30.03,29.96,29.90,10,10,9,15,5,20,0.00,0,,212
2012-7-6,103,88,72,63,59,55,73,48,23,30.01,29.97,29.91,10,10,10,16,5,20,0.00,1,,294
2012-7-7,101,87,73,70,65,61,87,58,29,30.04,29.99,29.95,10,10,9,32,6,43,0.04,2,Rain-Thunderstorm,42
2012-7-8,99,84,68,68,64,57,90,59,27,30.03,29.97,29.90,10,10,7,32,6,41,T,1,Rain,14
2012-7-9,88,79,70,71,67,64,87,69,51,30.06,29.99,29.93,10,10,2,26,5,33,0.18,4,Rain-Thunderstorm,108
2012-7-10,94,82,69,69,60,49,90,56,22,30.01,29.97,29.92,10,10,7,20,7,26,0.00,2,,48
2012-7-11,93,79,65,66,59,54,87,58,28,30.05,29.98,29.94,10,10,6,14,7,21,0.00,1,,91
2012-7-12,95,81,66,64,59,53,81,54,26,30.01,29.97,29.93,10,10,10,18,6,23,0.00,1,,105
2012-7-13,93,80,67,66,62,58,81,56,30,30.04,29.99,29.96,10,10,10,25,7,30,0.00,1,,136
2012-7-14,85,77,69,66,62,57,84,62,40,30.06,30.02,29.98,10,10,10,18,9,,0.00,1,,145
2012-7-15,93,79,64,67,64,59,93,64,34,30.10,30.03,29.96,10,10,10,18,7,24,0.00,1,,144
2012-7-16,95,84,72,68,65,58,90,60,30,30.02,29.96,29.88,10,10,10,16,8,23,0.00,1,,181
2012-7-17,97,84,71,68,63,58,79,54,28,29.96,29.91,29.84,10,10,10,18,9,26,0.00,1,,202
2012-7-18,101,88,74,66,61,56,64,44,24,29.99,29.92,29.85,10,10,10,18,8,26,0.00,0,,223
2012-7-19,102,90,77,66,60,55,67,45,23,30.02,29.93,29.85,10,10,10,17,8,24,0.00,0,,261
2012-7-20,99,86,72,67,59,50,73,47,21,30.00,29.96,29.94,10,10,10,20,9,24,0.00,0,,23
2012-7-21,98,84,69,64,57,48,78,48,18,30.05,30.00,29.95,10,10,10,17,8,25,0.00,0,,89
2012-7-22,98,84,70,65,59,55,73,49,25,30.08,30.03,29.99,10,10,10,16,9,23,0.00,0,,149
2012-7-23,100,88,75,68,63,58,74,50,26,30.11,30.03,29.97,10,10,10,17,8,21,0.00,1,,171
2012-7-24,99,87,74,67,62,60,69,49,29,30.04,29.96,29.87,10,10,10,16,8,29,0.00,1,,201
2012-7-25,102,89,75,66,62,59,69,48,26,29.90,29.83,29.73,10,10,10,21,12,26,0.00,1,,214
2012-7-26,93,84,74,68,64,60,79,60,40,29.90,29.82,29.75,10,10,10,22,9,28,T,1,,260
2012-7-27,102,84,66,70,60,50,87,53,19,29.99,29.94,29.91,10,10,10,23,8,26,0.00,0,,316
2012-7-28,101,82,63,56,52,48,78,49,20,30.08,30.03,29.99,10,10,10,16,5,20,0.00,0,,77
2012-7-29,106,91,76,63,58,53,60,40,20,30.04,29.93,29.85,10,10,10,23,11,28,0.00,0,,191
2012-7-30,104,91,77,62,56,51,51,35,18,29.94,29.87,29.83,10,10,10,22,10,26,T,0,,275
2012-7-31,95,87,78,68,63,59,55,44,33,29.94,29.91,29.86,10,10,10,15,8,17,T,2,Rain-Thunderstorm,128